Torna al catalogo

FENGYUN 1C DEB

AttivoPO
NORAD 31319·DEBRIS·🇨🇳 China

Lanciato May 10, 1999 da Taiyuan Satellite Launch Center

Loading…

Prossimi Passaggi (prossime 24 ore)

TLE

AggiornatoSource: Space-Track

Epoca: Sep 14, 2026, 12:45 UTC

1 31319U 99025BPX 26257.53192397  .00000091  00000-0  11979-3 0  9993
2 31319  98.7976 140.9989 0170740  70.9156  46.5419 13.75912052974804

Traccia FENGYUN 1C DEB in tempo reale con AllMySat

Download on the App Store